| time (UTC) | temp F | wind direction | speed knots | gust knots | rain 1hr in | rain 24hr in | rain mn in | humidity % | barometer mb |
| 20260502231527 | 57 | 87 | 0.9 | 5.2 | 0.00 | 0.00 | 0.00 | 73 | 1018.2 |
| 20260502230032 | 58 | 130 | 0.0 | 2.6 | 0.00 | 0.00 | 0.00 | 73 | 1018.3 |
| 20260502224524 | 58 | 130 | 0.0 | 1.7 | 0.00 | 0.00 | 0.00 | 74 | 1018.3 |
| 20260502223023 | 58 | 130 | 1.7 | 3.5 | 0.00 | 0.00 | 0.00 | 72 | 1018.3 |
| 20260502221520 | 58 | 131 | 2.6 | 4.3 | 0.00 | 0.00 | 0.00 | 70 | 1018.3 |
| 20260502220020 | 58 | 130 | 1.7 | 4.3 | 0.00 | 0.00 | 0.00 | 68 | 1018.4 |
| 20260502214517 | 59 | 127 | 1.7 | 6.1 | 0.00 | 0.00 | 0.00 | 67 | 1018.4 |
| 20260502213016 | 59 | 109 | 1.7 | 5.2 | 0.00 | 0.00 | 0.00 | 67 | 1018.5 |
| 20260502211517 | 60 | 109 | 3.5 | 6.1 | 0.00 | 0.00 | 0.00 | 66 | 1018.5 |
| 20260502210015 | 60 | 92 | 1.7 | 7.0 | 0.00 | 0.00 | 0.00 | 65 | 1018.5 |
| 20260502204514 | 61 | 103 | 0.9 | 6.1 | 0.00 | 0.00 | 0.00 | 64 | 1018.7 |
| 20260502203013 | 61 | 45 | 3.5 | 7.8 | 0.00 | 0.00 | 0.00 | 62 | 1018.7 |
| 20260502201513 | 61 | 40 | 3.5 | 6.1 | 0.00 | 0.00 | 0.00 | 61 | 1018.6 |
| 20260502200013 | 62 | 74 | 2.6 | 7.0 | 0.00 | 0.00 | 0.00 | 60 | 1018.6 |
| 20260502194512 | 63 | 197 | 0.9 | 1.7 | 0.00 | 0.00 | 0.00 | 59 | 1018.4 |
| 20260502193011 | 63 | 197 | 0.9 | 1.7 | 0.00 | 0.00 | 0.00 | 58 | 1018.3 |
| 20260502191510 | 64 | 197 | 0.0 | 0.0 | 0.00 | 0.00 | 0.00 | 55 | 1018.2 |
| 20260502190013 | 65 | 197 | 0.0 | 1.7 | 0.00 | 0.00 | 0.00 | 53 | 1018.1 |
| 20260502184524 | 66 | 197 | 0.9 | 3.5 | 0.00 | 0.00 | 0.00 | 52 | 1018.1 |
| 20260502183024 | 67 | 197 | 0.9 | 4.3 | 0.00 | 0.00 | 0.00 | 50 | 1017.9 |
| 20260502181509 | 68 | 197 | 0.9 | 5.2 | 0.00 | 0.00 | 0.00 | 48 | 1017.8 |
| 20260502163007 | 77 | 215 | 1.7 | 6.1 | 0.00 | 0.00 | 0.00 | 34 | 1017.7 |
| 20260502161505 | 78 | 234 | 4.3 | 8.7 | 0.00 | 0.00 | 0.00 | 33 | 1017.7 |
| 20260502151606 | 78 | 209 | 7.0 | 12.2 | 0.00 | 0.00 | 0.00 | 33 | 1018.3 |
| 20260502123036 | 78 | 220 | 4.3 | 8.7 | 0.00 | 0.00 | 0.00 | 32 | 1020.3 |
| 20260502121536 | 77 | 259 | 5.2 | 12.2 | 0.00 | 0.00 | 0.00 | 31 | 1020.5 |
| 20260502114522 | 76 | 277 | 3.5 | 13.0 | 0.00 | 0.00 | 0.00 | 33 | 1020.8 |
| 20260502113018 | 76 | 284 | 2.6 | 10.4 | 0.00 | 0.00 | 0.00 | 34 | 1021.0 |
| 20260502111520 | 75 | 259 | 1.7 | 10.4 | 0.00 | 0.00 | 0.00 | 34 | 1021.2 |
| 20260502110017 | 75 | 215 | 3.5 | 8.7 | 0.00 | 0.00 | 0.00 | 35 | 1021.4 |
| 20260502104510 | 74 | 239 | 3.5 | 8.7 | 0.00 | 0.00 | 0.00 | 33 | 1021.7 |
| 20260502103007 | 74 | 270 | 4.3 | 8.7 | 0.00 | 0.00 | 0.00 | 34 | 1021.8 |
| 20260502101505 | 74 | 255 | 3.5 | 7.8 | 0.00 | 0.00 | 0.00 | 36 | 1022.0 |
| 20260502071517 | 63 | 60 | 1.7 | 3.5 | 0.00 | 0.00 | 0.00 | 51 | 1023.3 |
| 20260502070013 | 61 | 36 | 2.6 | 5.2 | 0.00 | 0.00 | 0.00 | 53 | 1023.5 |
| 20260502064508 | 60 | 36 | 2.6 | 4.3 | 0.00 | 0.00 | 0.00 | 55 | 1023.6 |
| 20260502063010 | 58 | 36 | 1.7 | 3.5 | 0.00 | 0.00 | 0.00 | 58 | 1023.6 |
| 20260502061600 | 57 | 36 | 2.6 | 4.3 | 0.00 | 0.00 | 0.00 | 59 | 1023.7 |
| 20260502060055 | 56 | 46 | 2.6 | 4.3 | 0.00 | 0.00 | 0.00 | 60 | 1023.8 |
| 20260502054552 | 55 | 72 | 1.7 | 3.5 | 0.00 | 0.00 | 0.00 | 63 | 1023.8 |
| 20260502053054 | 53 | 72 | 0.9 | 2.6 | 0.00 | 0.00 | 0.00 | 66 | 1023.9 |
| 20260502051550 | 52 | 72 | 0.9 | 3.5 | 0.00 | 0.00 | 0.00 | 67 | 1023.8 |
| 20260502050040 | 51 | 66 | 0.9 | 3.5 | 0.00 | 0.00 | 0.00 | 70 | 1023.8 |
| 20260502044538 | 49 | 355 | 0.0 | 1.7 | 0.00 | 0.00 | 0.00 | 73 | 1023.7 |
| 20260502043030 | 49 | 355 | 0.9 | 1.7 | 0.00 | 0.00 | 0.00 | 72 | 1023.7 |
| 20260502041537 | 49 | 355 | 0.0 | 0.9 | 0.00 | 0.00 | 0.00 | 71 | 1023.6 |
| 20260502040025 | 49 | 355 | 0.9 | 2.6 | 0.00 | 0.00 | 0.00 | 71 | 1023.6 |
| 20260502034524 | 49 | 355 | 0.9 | 3.5 | 0.00 | 0.00 | 0.00 | 70 | 1023.6 |
| 20260502033026 | 49 | 355 | 0.9 | 2.6 | 0.00 | 0.00 | 0.00 | 70 | 1023.6 |
| 20260502031521 | 50 | 355 | 0.9 | 2.6 | 0.00 | 0.00 | 0.00 | 69 | 1023.6 |
| 20260502030022 | 50 | 355 | 0.9 | 3.5 | 0.00 | 0.00 | 0.00 | 69 | 1023.6 |
| 20260502024520 | 50 | 355 | 1.7 | 5.2 | 0.00 | 0.00 | 0.00 | 68 | 1023.6 |
| 20260502023018 | 50 | 13 | 2.6 | 6.1 | 0.00 | 0.00 | 0.00 | 69 | 1023.6 |
| 20260502021518 | 50 | 11 | 2.6 | 5.2 | 0.00 | 0.00 | 0.00 | 68 | 1023.7 |
| 20260502020012 | 50 | 15 | 0.9 | 3.5 | 0.00 | 0.00 | 0.00 | 68 | 1023.8 |
| 20260502014522 | 51 | 17 | 2.6 | 4.3 | 0.00 | 0.00 | 0.00 | 67 | 1023.9 |
| 20260502013008 | 51 | 24 | 1.7 | 3.5 | 0.00 | 0.00 | 0.00 | 66 | 1023.8 |
| 20260502011508 | 51 | 25 | 2.6 | 4.3 | 0.00 | 0.00 | 0.00 | 67 | 1023.9 |
| 20260502010005 | 51 | 24 | 3.5 | 7.0 | 0.00 | 0.00 | 0.00 | 69 | 1023.9 |
| 20260502004609 | 51 | 46 | 1.7 | 4.3 | 0.00 | 0.00 | 0.00 | 72 | 1024.0 |
| 20260502003001 | 52 | 80 | 0.9 | 2.6 | 0.00 | 0.00 | 0.00 | 72 | 1024.0 |
| 20260502001603 | 52 | 80 | 0.0 | 2.6 | 0.00 | 0.00 | 0.00 | 72 | 1024.1 |
| 20260502000100 | 52 | 80 | 1.7 | 4.3 | 0.00 | 0.00 | 0.00 | 72 | 1024.1 |
| 20260501234558 | 52 | 88 | 1.7 | 5.2 | 0.00 | 0.00 | 0.00 | 71 | 1024.2 |
| 20260501233107 | 53 | 90 | 1.7 | 5.2 | 0.00 | 0.00 | 0.00 | 70 | 1024.1 |